Regional Weather Roundup
Issued by NWS Northern Indiana

Home | Current Version | Previous Version | Graphics & Text | Print | Product List | Glossary On
Versions: 1 2 3 4 5 6 7 8 9 10 11 12 13 14 15 16 17 18 19 20 21 22 23 24 25 26 27 28 29 30 31 32 33 34 35 36 37 38 39 40 41 42 43 44 45 46 47 48 49 50
000
ASUS43 KIWX 301710
RWRIWX

KIWX WEATHER ROUNDUP
NATIONAL WEATHER SERVICE NORTHERN INDIANA
100 PM EDT TUE AUG 30 2016

NOTE: "FAIR" INDICATES FEW OR NO CLOUDS BELOW 12,000 FEET WITH NO
SIGNIFICANT WEATHER AND/OR OBSTRUCTIONS TO VISIBILITY.

* THESE STATIONS ARE NOT UNDER NWS QUALITY CONTROL. THEY ALSO MAY NOT
  REPORT WEATHER SUCH AS PRECIPITATION OR FOG.

INZ001>027-301800-
NORTHERN INDIANA

CITY           SKY/WX    TMP DP  RH WIND       PRES   REMARKS
GARY*          CLOUDY    79  75  89 VRB5      30.14F FOG
VALPARAISO     CLOUDY    76  71  85 E3        30.15F
MICHIGAN CITY* CLOUDY    75  75 100 MISG      30.13F
LAPORTE*       MOSUNNY   78  78 100 E5        30.15F
KNOX*          CLOUDY    75  52  43 NE5       30.15R
SOUTH BEND     MOSUNNY   73  72  96 S6        30.15F
ELKHART*       LGT RAIN N/A N/A N/A CALM      30.14F
GOSHEN         CLOUDY    77  68  73 CALM      30.14F
MONTICELLO*    PTSUNNY   81  68  65 CALM      30.14S
LOGANSPORT*    MOSUNNY   81  72  74 CALM      30.14F
ROCHESTER*     CLOUDY    82  73  74 SW5       30.14F
WARSAW*        CLOUDY    79  72  78 N6        30.15S
ANGOLA*        MOSUNNY   82  72  69 CALM      30.16F
FORT WAYNE     PTSUNNY   84  69  60 VRB5      30.15F
HUNTINGTON*    CLOUDY    82  71  68 CALM      30.15S
PERU/GRISSOM   PTSUNNY   84  73  69 W6        30.13F
MARION*        CLOUDY    84  70  62 SW6       30.16S HAZE

$$
INZ028>050-301800-
CENTRAL INDIANA

CITY           SKY/WX    TMP DP  RH WIND       PRES   REMARKS
LAFAYETTE      SUNNY     84  73  69 SW7       30.13F
KOKOMO*        MOSUNNY   84  73  70 SW6       30.14F
MUNCIE*        MOSUNNY   84  69  60 CALM      30.15F
INDIANAPOLIS   MOSUNNY   85  69  58 CALM      30.14F

$$
MIZ043>046-050>051-056>058-064>065-071>073-077>080-301800-
SOUTHWEST LOWER MICHIGAN

CITY           SKY/WX    TMP DP  RH WIND       PRES   REMARKS
BATTLE CREEK   CLOUDY    73  69  87 W6        30.16F
BENTON HARBOR  CLOUDY    77  70  79 S6        30.12F
COLDWATER*     LGT RAIN  73  68  84 CALM      30.17F
HILLSDALE*     CLOUDY    77  63  61 SW3       30.17F
HOLLAND        CLOUDY    79  70  74 W7        30.14F
GRAND RAPIDS   PTSUNNY   81  70  69 SW8       30.14F
KALAMAZOO      CLOUDY    74  70  87 S3        30.15F
STURGIS*       PTSUNNY   74  69  83 NE3       30.16S
THREE RIVERS*  LGT RAIN  73  71  93 CALM      30.15F

$$
OHZ001>008-015>018-024>025-301800-
NORTHWEST OHIO

CITY           SKY/WX    TMP DP  RH WIND       PRES   REMARKS
WAUSEON*       FAIR      81  63  54 CALM      30.16F
DEFIANCE       MOSUNNY   82  64  54 CALM      30.16S
FINDLAY        SUNNY     84  62  47 CALM      30.15F
TOLEDO EXPRESS CLOUDY    80  60  50 SW3       30.15F
TOLEDO METCALF PTSUNNY   81  58  45 S3        30.16S
LIMA           MOSUNNY   82  69  64 CALM      30.16F

$$
AND FOR LAKE MICHIGAN COASTAL AND OPEN LAKE BUOY OBSERVATIONS

STATION/POSITION TEMP    WIND        PRES    VSBY  WAVE
                 AIR SEA DIR/SP/G                  HT/PER
                 (F)     (DEG/KT/KT) (MB)    (MI)  (FT/S)
CALUMET HARBOR    74     110/  6/ 10 1020.0S
MICHIGAN CITY     72      90/  4/  7   N/A
BURNS HARBOR      74     100/  7/ 15 1021.0R
SAINT JOSEPH      78     170/  2/  4 1021.0F
SOUTH LAKE BUOY   75 75  200/  8/ 10 1019.5S         2/ 4
4 MI NW BRIDGMAN  70 70  190/  4/  4 1019.9F         0
MICHIGAN CITY     71 68  150/  6/ 10   N/A           1/ 3

$$
&&



USA.gov is the U.S. government's official web portal to all federal, state and local government web resources and services.